{"data":{"norad_id":64155,"epoch":"2026-09-20T14:13:12.485568Z","epoch_age_seconds":132356,"freshness":"FRESH","line1":"1 64155U 25112K   26263.59250562  .00021750  00000+0  64058-3 0  9995","line2":"2 64155  97.2788 310.6715 0001261 146.7024 213.4299 15.35061230 72769","mean_motion":15.3506123,"eccentricity":0.0001261,"inclination_deg":97.2788,"raan_deg":310.6715,"arg_perigee_deg":146.7024,"mean_anomaly_deg":213.4299,"bstar":0.00064058,"rev_number":7276,"period_min":93.807333014332,"perigee_km":459.87624858462,"apogee_km":461.60101301871,"semimajor_km":6838.8756308017,"source":"CELESTRAK","updated_at":"2026-09-21T09:00:35.239421Z"}}